Location: Shandelee
(41.8790°N, 74.8713°W)
Time: 03:48:43
(UTC+00:00)

BREEZE-M R/B - Pass Details

Date: 29 October 2020
Orbit: 310 x 4523 km, 49.7° (Epoch: 23 November)

Event Time Altitude Azimuth Distance (km) Brightness Sun altitude
Rises 22:19:53 0° 292° (WNW) 2,286 7.0 -5.0°
Reaches altitude 10° 22:21:39 10° 306° (NW) 1,617 5.8 -5.3°
Maximum altitude 22:24:47 30° 11° (N) 1,142 4.2 -5.8°
Drops below altitude 10° 22:30:14 10° 72° (ENE) 2,890 5.8 -6.8°
Enters shadow 22:31:00 - 74° (ENE) 3,192 6.0 -7.0°
